Tracking 19562 objects as of 24-Mar-2019
HD Live streaming from Space Station
objects crossing your sky now

GALAXY 1

Track GALAXY 1 now!
GALAXY 1 is classified as:


NORAD ID: 14158
Int'l Code: 1983-065A
Perigee: 35,805.1 km
Apogee: 35,855.6 km
Inclination: 15.2 °
Period: 1,438.0 minutes
Semi major axis: 42201 km
RCS: 4.5709 m2 (large)
Launch date: June 28, 1983
Source: United States (US)
Launch site: AIR FORCE EASTERN TEST RANGE (AFETR)
aabbcc
Your satellite tracking list
Your tracking list is empty




NASA's NSSDC Master Catalog

Two Line Element Set (TLE):
1 14158U 83065A   19082.52004730 +.00000051 +00000-0 +00000-0 0  9998
2 14158 015.1700 003.7080 0005983 325.0500 230.9099 01.00141207104286
Source of the keplerian elements: AFSPC